EA3BIN-13 Weather Reports


Display with metric or nautical units.
time (UTC)temp
F
wind
direction
speed
MPH
gust
MPH
rain 1hr
in
rain 24hr
in
rain mn
in
humidity
%
barometer
mb
20260904094036 88 0.0 0.0 0.00 0.00 0.00 60 1019.5
20260904093036 87 0.0 0.0 0.00 0.00 0.00 65 1019.6
20260904092035 85 0.0 0.0 0.00 0.00 0.00 70 1019.6
20260904091041 85 0.0 0.0 0.00 0.00 0.00 74 1019.8
20260904090036 83 0.0 0.0 0.00 0.00 0.00 77 1019.8
20260904085036 81 0.0 0.0 0.00 0.00 0.00 87 1020.0
20260904084035 81 0.0 0.0 0.00 0.00 0.00 89 1020.2
20260904083035 79 0.0 0.0 0.00 0.00 0.00 91 1020.2
20260904082041 79 0.0 0.0 0.00 0.00 0.00 99 1020.3
20260904081041 78 0.0 0.0 0.00 0.00 0.00 10 1020.3
20260904080036 76 0.0 0.0 0.00 0.00 0.00 10 1020.4
20260904075035 75 0.0 0.0 0.00 0.00 0.00 10 1020.5
20260904074036 74 0.0 0.0 0.00 0.00 0.00 10 1020.7
20260904073041 73 0.0 0.0 0.00 0.00 0.00 10 1020.7
20260904072036 72 0.0 0.0 0.00 0.00 0.00 10 1020.8
20260904071036 72 0.0 0.0 0.00 0.00 0.00 10 1020.8
20260904070035 71 0.0 0.0 0.00 0.00 0.00 10 1021.0
20260904065046 71 0.0 0.0 0.00 0.00 0.00 10 1020.9
20260904064035 70 0.0 0.0 0.00 0.00 0.00 10 1020.9
20260904063035 70 0.0 0.0 0.00 0.00 0.00 10 1021.0
20260904062036 69 0.0 0.0 0.00 0.00 0.00 10 1020.9
20260904061036 69 0.0 0.0 0.00 0.00 0.00 10 1020.9
20260904060036 69 0.0 0.0 0.00 0.00 0.00 10 1020.9
20260904055036 68 0.0 0.0 0.00 0.00 0.00 10 1020.9
20260904054036 69 0.0 0.0 0.00 0.00 0.00 10 1020.8
20260904053035 68 0.0 0.0 0.00 0.00 0.00 10 1020.9
20260904052035 68 0.0 0.0 0.00 0.00 0.00 10 1020.9
20260904051041 68 0.0 0.0 0.00 0.00 0.00 10 1020.9
20260904050035 68 0.0 0.0 0.00 0.00 0.00 10 1020.9
20260904045036 68 0.0 0.0 0.00 0.00 0.00 10 1020.9
20260904044035 68 0.0 0.0 0.00 0.00 0.00 10 1021.1
20260904043036 68 0.0 0.0 0.00 0.00 0.00 10 1021.1
20260904042051 68 0.0 0.0 0.00 0.00 0.00 10 1021.1
20260904041036 70 0.0 0.0 0.00 0.00 0.00 10 1021.1
20260904040035 69 0.0 0.0 0.00 0.00 0.00 10 1021.2
20260904035046 69 0.0 0.0 0.00 0.00 0.00 10 1021.3
20260904034036 69 0.0 0.0 0.00 0.00 0.00 10 1021.3
20260904033035 69 0.0 0.0 0.00 0.00 0.00 10 1021.2
20260904032035 70 0.0 0.0 0.00 0.00 0.00 10 1021.2
20260904031036 72 0.0 0.0 0.00 0.00 0.00 10 1021.1
20260904030035 72 0.0 0.0 0.00 0.00 0.00 10 1021.1
20260904025046 72 0.0 0.0 0.00 0.00 0.00 10 1021.3
20260904024035 71 0.0 0.0 0.00 0.00 0.00 10 1021.4
20260904023036 71 0.0 0.0 0.00 0.00 0.00 10 1021.4
20260904022036 71 0.0 0.0 0.00 0.00 0.00 10 1021.4
20260904021035 71 0.0 0.0 0.00 0.00 0.00 10 1021.4
20260904020035 71 0.0 0.0 0.00 0.00 0.00 10 1021.4
20260904015036 71 0.0 0.0 0.00 0.00 0.00 10 1021.7
20260904014036 71 0.0 0.0 0.00 0.00 0.00 10 1021.7
20260904013051 72 0.0 0.0 0.00 0.00 0.00 10 1021.8
20260904012036 72 0.0 0.0 0.00 0.00 0.00 10 1021.7
20260904011041 72 0.0 0.0 0.00 0.00 0.00 10 1021.6
20260904010036 72 0.0 0.0 0.00 0.00 0.00 10 1021.8
20260904005041 73 0.0 0.0 0.00 0.00 0.00 10 1021.7
20260904004036 73 0.0 0.0 0.00 0.00 0.00 10 1021.8
20260904003035 73 0.0 0.0 0.00 0.00 0.00 10 1021.9
20260904002035 73 0.0 0.0 0.00 0.00 0.00 10 1021.9
20260904001036 73 0.0 0.0 0.00 0.00 0.00 10 1022.0
20260904000036 73 0.0 0.0 0.00 0.00 0.00 10 1022.0
20260903235036 73 0.0 0.0 0.00 0.00 0.00 10 1022.0
20260903234041 73 0.0 0.0 0.00 0.00 0.00 10 1022.1
20260903233046 73 0.0 0.0 0.00 0.00 0.00 10 1022.1
20260903232035 74 0.0 0.0 0.00 0.00 0.00 10 1022.1
20260903231035 74 0.0 0.0 0.00 0.00 0.00 10 1022.1
20260903230036 74 0.0 0.0 0.00 0.00 0.00 10 1022.1
20260903225035 74 0.0 0.0 0.00 0.00 0.00 10 1022.1
20260903224036 74 0.0 0.0 0.00 0.00 0.00 10 1022.0
20260903223036 75 0.0 0.0 0.00 0.00 0.00 10 1022.0
20260903222036 75 0.0 0.0 0.00 0.00 0.00 10 1021.9
20260903221036 75 0.0 0.0 0.00 0.00 0.00 10 1021.9
20260903220036 76 0.0 0.0 0.00 0.00 0.00 10 1021.9
20260903215035 76 0.0 0.0 0.00 0.00 0.00 10 1021.9
20260903214035 77 0.0 0.0 0.00 0.00 0.00 10 1021.8
20260903213035 77 0.0 0.0 0.00 0.00 0.00 10 1021.8
20260903212036 77 0.0 0.0 0.00 0.00 0.00 10 1021.8
20260903211036 77 0.0 0.0 0.00 0.00 0.00 98 1021.8
20260903210036 77 0.0 0.0 0.00 0.00 0.00 98 1021.8
20260903205036 77 0.0 0.0 0.00 0.00 0.00 10 1021.8
20260903204036 78 0.0 0.0 0.00 0.00 0.00 98 1021.8
20260903203036 78 0.0 0.0 0.00 0.00 0.00 95 1021.9
20260903202041 79 0.0 0.0 0.00 0.00 0.00 92 1021.8
20260903201036 79 0.0 0.0 0.00 0.00 0.00 92 1021.6
20260903200036 79 0.0 0.0 0.00 0.00 0.00 93 1021.7
20260903195036 79 0.0 0.0 0.00 0.00 0.00 91 1021.5
20260903194036 79 0.0 0.0 0.00 0.00 0.00 90 1021.5
20260903193036 79 0.0 0.0 0.00 0.00 0.00 90 1021.3
20260903192036 79 0.0 0.0 0.00 0.00 0.00 88 1021.1
20260903191036 79 0.0 0.0 0.00 0.00 0.00 87 1020.9
20260903190041 80 0.0 0.0 0.00 0.00 0.00 86 1020.8
20260903185036 80 0.0 0.0 0.00 0.00 0.00 88 1020.6
20260903184036 81 0.0 0.0 0.00 0.00 0.00 84 1020.5
20260903183036 81 0.0 0.0 0.00 0.00 0.00 83 1020.3
20260903182036 82 0.0 0.0 0.00 0.00 0.00 79 1020.2
20260903181035 82 0.0 0.0 0.00 0.00 0.00 76 1020.1
20260903180036 83 0.0 0.0 0.00 0.00 0.00 72 1019.8
20260903175035 84 0.0 0.0 0.00 0.00 0.00 69 1019.8
20260903174036 84 0.0 0.0 0.00 0.00 0.00 62 1019.6
20260903173042 87 0.0 0.0 0.00 0.00 0.00 55 1019.5
20260903172036 93 0.0 0.0 0.00 0.00 0.00 42 1018.9
20260903171041 112 0.0 0.0 0.00 0.00 0.00 26 1017.1
20260903170036 117 0.0 0.0 0.00 0.00 0.00 22 1016.7
20260903165035 115 0.0 0.0 0.00 0.00 0.00 22 1017.0
20260903164036 116 0.0 0.0 0.00 0.00 0.00 23 1017.0
20260903163036 117 0.0 0.0 0.00 0.00 0.00 21 1016.9
20260903162042 117 0.0 0.0 0.00 0.00 0.00 23 1016.8
20260903161036 115 0.0 0.0 0.00 0.00 0.00 23 1017.2
20260903160041 125 0.0 0.0 0.00 0.00 0.00 18 1016.5
20260903155036 128 0.0 0.0 0.00 0.00 0.00 16 1016.1
20260903154036 128 0.0 0.0 0.00 0.00 0.00 16 1016.3
20260903153036 127 0.0 0.0 0.00 0.00 0.00 16 1016.2
20260903152036 129 0.0 0.0 0.00 0.00 0.00 16 1016.3
20260903151036 123 0.0 0.0 0.00 0.00 0.00 17 1016.6
20260903150036 122 0.0 0.0 0.00 0.00 0.00 17 1016.8
20260903145036 128 0.0 0.0 0.00 0.00 0.00 15 1016.5
20260903144041 125 0.0 0.0 0.00 0.00 0.00 16 1016.8
20260903143041 121 0.0 0.0 0.00 0.00 0.00 18 1017.0
20260903142036 116 0.0 0.0 0.00 0.00 0.00 21 1017.5
20260903141036 97 0.0 0.0 0.00 0.00 0.00 34 1018.9
20260903140036 95 0.0 0.0 0.00 0.00 0.00 36 1019.0
20260903135036 96 0.0 0.0 0.00 0.00 0.00 36 1019.1
20260903134036 95 0.0 0.0 0.00 0.00 0.00 37 1019.4
20260903133036 95 0.0 0.0 0.00 0.00 0.00 38 1019.5
20260903132036 95 0.0 0.0 0.00 0.00 0.00 37 1019.5
20260903131036 96 0.0 0.0 0.00 0.00 0.00 36 1019.5
20260903130036 95 0.0 0.0 0.00 0.00 0.00 36 1019.6
20260903125041 95 0.0 0.0 0.00 0.00 0.00 35 1019.6
20260903124036 95 0.0 0.0 0.00 0.00 0.00 37 1019.6
20260903123036 95 0.0 0.0 0.00 0.00 0.00 35 1019.6
20260903122036 94 0.0 0.0 0.00 0.00 0.00 34 1019.7
20260903121036 94 0.0 0.0 0.00 0.00 0.00 35 1019.9
20260903120036 94 0.0 0.0 0.00 0.00 0.00 35 1019.8
20260903115036 94 0.0 0.0 0.00 0.00 0.00 34 1019.9
20260903114036 93 0.0 0.0 0.00 0.00 0.00 35 1020.2
20260903113041 92 0.0 0.0 0.00 0.00 0.00 36 1020.3
20260903112036 91 0.0 0.0 0.00 0.00 0.00 39 1020.5
20260903111036 90 0.0 0.0 0.00 0.00 0.00 37 1020.7
20260903110036 90 0.0 0.0 0.00 0.00 0.00 39 1020.8
20260903105036 90 0.0 0.0 0.00 0.00 0.00 39 1020.9
20260903104036 89 0.0 0.0 0.00 0.00 0.00 38 1021.1
20260903103036 90 0.0 0.0 0.00 0.00 0.00 40 1021.2
20260903102036 88 0.0 0.0 0.00 0.00 0.00 40 1021.5
20260903101036 87 0.0 0.0 0.00 0.00 0.00 41 1021.7
20260903100036 87 0.0 0.0 0.00 0.00 0.00 41 1021.7
20260903095036 86 0.0 0.0 0.00 0.00 0.00 43 1021.8